Torna al catalogo

AMOS 3

AttivoComunicazioniGEO
NORAD 32794·PAYLOAD·🇮🇱 Israel

Lanciato Apr 28, 2008 da Baikonur Cosmodrome

Loading…

TLE

AggiornatoSource: Space-Track

Epoca: Sep 14, 2026, 14:10 UTC

1 32794U 08022A   26257.59061441 -.00000124  00000-0  00000-0 0  9997
2 32794   0.6796  84.7404 0002173  45.7971 153.6549  1.00272906 83234

Traccia AMOS 3 in tempo reale con AllMySat

Download on the App Store